Chetumal International Airport
MMCM : rendu visible

Aérodrome :











RETROUVEZ-NOUS SUR...

 
LOGIN :

S'inscrire | Disclaimer

   EN    FR    IT 

 









Légende :    VFR   VFR Marginal   IFR   IFR Intensif   IFR Très Intensif
Visi : 
Plafond : 
>= 8 km
>= 3000ft
5 à 8 km
1000 à 3000 ft
1500m à 5 km
500 à 1000 ft
800 à 1500m
200 à 500 ft
< 800m
< 200 ft
Symboles :   Orages  Brouillard  Fortes neiges  Fortes précipitations  Vent > 20 kt






- Altitude de l'aérodrome : 39 ft
- Code IATA : CTM


MMCM - Chetumal International

DERNIER METAR :
  • 270155Z 13006KT 7SM SKC 24/21 A2996

METARs EXPIRÉS :
  • 270041Z 12006KT 7SM SKC 25/20 A2995
  • 262342Z 12006KT 7SM SKC 25/20 A2994 RMK SLP140 5//// 981

TAF TAF MMCM
Valide du 26 à 06h jusqu'au 27 à 06h UTC


260452Z 2606/2706 00000KT P6SM SKC
BECMG 2608/2609 BKN020
FM261600 12010KT P6SM SCT020
BECMG 2700/2701 10005KT



MET'MAP, la Météo Aéronautique d'un coup d'oeil ! - Copyright ORBIFLY Décembre 2007 - Disclaimer

ORBIFLY MET'MAP TEAM :

Programmation & Développement : Alexandra Zaïnal
Sur une idée originale de : Baudouin d'Aumeries
Assistance à la programmation : Marc-Olivier Méhu
Soutien technique & logistique : Manuel Goepfert

Contact : metmap@orbifly.com




SOURCES & CREDITS :

   NOAA       Earth
Advisory